JBU245 KRIC-KFLL

Flight info

Callsign JBU245
Flight time 2h 9m
Altitude 38000
Route HOUKY MAZON KOHLS Q97 PRMUS CUUDA3
Aircraft A320/M-SDE3FGHIRWY/LB1

Departure

Time 2026-05-08 22:47
Airport Richmond International Airport (KRIC)

Arrival

Time 2026-05-09 00:56
Airport Fort Lauderdale Hollywood International Airport (KFLL)
Time Latitude Longitude Altitude Speed Heading
2026-05-08 22:20 37.50926 -77.33125 173 ft 0 kts 163°
2026-05-08 22:36 37.50939 -77.33130 173 ft 3 kts 162°
2026-05-08 22:37 37.50991 -77.33138 173 ft 4 kts 187°
2026-05-08 22:37 37.51017 -77.33133 173 ft 4 kts 191°
2026-05-08 22:37 37.51044 -77.33126 173 ft 4 kts 191°
2026-05-08 22:38 37.51071 -77.33120 173 ft 4 kts 192°
2026-05-08 22:38 37.51099 -77.33113 173 ft 4 kts 200°
2026-05-08 22:38 37.51115 -77.33106 173 ft 4 kts 244°
2026-05-08 22:38 37.51128 -77.33085 173 ft 4 kts 230°
2026-05-08 22:39 37.51138 -77.33057 173 ft 4 kts 276°
2026-05-08 22:39 37.51133 -77.33025 173 ft 4 kts 276°
2026-05-08 22:39 37.51129 -77.32991 173 ft 4 kts 282°
2026-05-08 22:39 37.51123 -77.32958 173 ft 4 kts 286°
2026-05-08 22:40 37.51115 -77.32926 173 ft 4 kts 285°
2026-05-08 22:40 37.51109 -77.32893 173 ft 4 kts 279°
2026-05-08 22:40 37.51106 -77.32860 173 ft 4 kts 264°
2026-05-08 22:40 37.51106 -77.32855 173 ft 0 kts 260°
2026-05-08 22:43 37.51116 -77.32872 173 ft 2 kts 354°
2026-05-08 22:43 37.51181 -77.32807 173 ft 20 kts 17°
2026-05-08 22:44 37.51337 -77.32762 173 ft 25 kts 14°
2026-05-08 22:44 37.51509 -77.32709 173 ft 18 kts 12°
2026-05-08 22:44 37.51614 -77.32677 173 ft 13 kts 29°
2026-05-08 22:44 37.51638 -77.32593 173 ft 6 kts 90°
2026-05-08 22:45 37.51638 -77.32515 173 ft 12 kts 90°
2026-05-08 22:45 37.51601 -77.32454 174 ft 8 kts 188°
2026-05-08 22:45 37.51533 -77.32472 175 ft 12 kts 185°
2026-05-08 22:45 37.51472 -77.32373 173 ft 19 kts 103°
2026-05-08 22:46 37.51443 -77.32194 176 ft 21 kts 114°
2026-05-08 22:46 37.51260 -77.32041 175 ft 58 kts 147°
2026-05-08 22:46 37.50747 -77.31628 174 ft 116 kts 147°
2026-05-08 22:46 37.49938 -77.30984 195 ft 157 kts 148°
2026-05-08 22:47 37.49001 -77.30220 693 ft 162 kts 149°
2026-05-08 22:47 37.48055 -77.29458 1357 ft 161 kts 150°
2026-05-08 22:47 37.47072 -77.28672 1711 ft 177 kts 148°
2026-05-08 22:47 37.46066 -77.27682 1881 ft 199 kts 142°
2026-05-08 22:48 37.44949 -77.26443 2159 ft 219 kts 140°
2026-05-08 22:48 37.43763 -77.25094 2518 ft 240 kts 140°
2026-05-08 22:48 37.42485 -77.23642 2981 ft 259 kts 140°
2026-05-08 22:48 37.41126 -77.22104 3722 ft 266 kts 140°
2026-05-08 22:49 37.39733 -77.20536 4573 ft 271 kts 140°
2026-05-08 22:49 37.36878 -77.17334 6208 ft 280 kts 140°
2026-05-08 22:49 37.35397 -77.15726 6985 ft 284 kts 146°
2026-05-08 22:50 37.33655 -77.14585 7728 ft 283 kts 165°
2026-05-08 22:50 37.31713 -77.14223 8450 ft 285 kts 184°
2026-05-08 22:50 37.29773 -77.14660 9185 ft 284 kts 201°
2026-05-08 22:50 37.27911 -77.15443 9903 ft 290 kts 201°
2026-05-08 22:51 37.25964 -77.16258 10391 ft 304 kts 202°
2026-05-08 22:51 37.23885 -77.17126 10581 ft 326 kts 202°
2026-05-08 22:51 37.21659 -77.18052 10721 ft 348 kts 202°
2026-05-08 22:51 37.19289 -77.19028 10852 ft 368 kts 202°
2026-05-08 22:52 37.16788 -77.20048 10985 ft 387 kts 202°
2026-05-08 22:52 37.14182 -77.21107 11272 ft 398 kts 202°
2026-05-08 22:52 37.11525 -77.22185 11751 ft 404 kts 202°
2026-05-08 22:52 37.08879 -77.23259 12274 ft 407 kts 203°
2026-05-08 22:53 37.06174 -77.24357 12822 ft 410 kts 203°
2026-05-08 22:53 37.03457 -77.25461 13388 ft 412 kts 204°
2026-05-08 22:53 37.00723 -77.26574 13929 ft 414 kts 204°
2026-05-08 22:53 36.97979 -77.27692 14458 ft 416 kts 204°
2026-05-08 22:54 36.95222 -77.28817 14994 ft 417 kts 204°
2026-05-08 22:54 36.92456 -77.29943 15499 ft 419 kts 204°
2026-05-08 22:54 36.89678 -77.31074 15985 ft 421 kts 205°
2026-05-08 22:54 36.86885 -77.32206 16447 ft 423 kts 205°
2026-05-08 22:55 36.84079 -77.33336 16936 ft 425 kts 204°
2026-05-08 22:55 36.81143 -77.34087 17389 ft 438 kts 192°
2026-05-08 22:55 36.78096 -77.34065 17822 ft 452 kts 180°
2026-05-08 22:55 36.74989 -77.33169 18252 ft 467 kts 167°
2026-05-08 22:56 36.72031 -77.31372 18658 ft 481 kts 153°
2026-05-08 22:56 36.69405 -77.28711 19041 ft 494 kts 139°
2026-05-08 22:56 36.67007 -77.25620 19433 ft 498 kts 139°
2026-05-08 22:56 36.64600 -77.22500 19803 ft 501 kts 139°
2026-05-08 22:57 36.62180 -77.19364 20168 ft 504 kts 139°
2026-05-08 22:57 36.59740 -77.16212 20532 ft 507 kts 139°
2026-05-08 22:57 36.57318 -77.13090 20868 ft 509 kts 139°
2026-05-08 22:57 36.54847 -77.09914 21167 ft 512 kts 139°
2026-05-08 22:58 36.52361 -77.06724 21473 ft 515 kts 139°
2026-05-08 22:58 36.49862 -77.03524 21828 ft 516 kts 140°
2026-05-08 22:58 36.47365 -77.00329 22251 ft 515 kts 140°
2026-05-08 22:58 36.44747 -76.97336 22636 ft 507 kts 150°
2026-05-08 22:59 36.41764 -76.95126 23008 ft 493 kts 164°
2026-05-08 22:59 36.38565 -76.93818 23393 ft 477 kts 177°
2026-05-08 22:59 36.35324 -76.93384 23794 ft 462 kts 189°
2026-05-08 22:59 36.32182 -76.93750 24209 ft 447 kts 201°
2026-05-08 23:00 36.29295 -76.94808 24638 ft 432 kts 211°
2026-05-08 23:00 36.26668 -76.96470 25096 ft 418 kts 221°
2026-05-08 23:00 36.24298 -76.98503 25535 ft 413 kts 224°
2026-05-08 23:00 36.21955 -77.00545 26011 ft 411 kts 224°
2026-05-08 23:01 36.19625 -77.02573 26520 ft 408 kts 225°
2026-05-08 23:01 36.17312 -77.04588 27038 ft 405 kts 225°
2026-05-08 23:01 36.15016 -77.06582 27549 ft 402 kts 226°
2026-05-08 23:01 36.12733 -77.08563 28020 ft 400 kts 226°
2026-05-08 23:02 36.10469 -77.10525 28490 ft 396 kts 226°
2026-05-08 23:02 36.08251 -77.12446 28965 ft 393 kts 227°
2026-05-08 23:02 36.06023 -77.14380 29393 ft 390 kts 227°
2026-05-08 23:02 36.03802 -77.16304 29809 ft 389 kts 227°
2026-05-08 23:03 36.01591 -77.18218 30275 ft 387 kts 228°
2026-05-08 23:03 35.99394 -77.20115 30805 ft 384 kts 228°
2026-05-08 23:03 35.97209 -77.21996 31364 ft 379 kts 228°
2026-05-08 23:03 35.95073 -77.23836 31955 ft 374 kts 229°
2026-05-08 23:04 35.92958 -77.25659 32514 ft 368 kts 229°
2026-05-08 23:04 35.90911 -77.27501 33029 ft 360 kts 231°
2026-05-08 23:04 35.88973 -77.29351 33512 ft 355 kts 232°
2026-05-08 23:04 35.87059 -77.31237 33993 ft 350 kts 233°
2026-05-08 23:05 35.85175 -77.33111 34450 ft 346 kts 233°
2026-05-08 23:05 35.83306 -77.34964 34861 ft 344 kts 233°
2026-05-08 23:05 35.81436 -77.36801 35209 ft 343 kts 233°
2026-05-08 23:05 35.79564 -77.38627 35484 ft 343 kts 233°
2026-05-08 23:06 35.77685 -77.40446 35760 ft 344 kts 233°
2026-05-08 23:06 35.75802 -77.42255 36036 ft 343 kts 233°
2026-05-08 23:06 35.73943 -77.44036 36298 ft 343 kts 233°
2026-05-08 23:06 35.72064 -77.45838 36520 ft 343 kts 233°
2026-05-08 23:07 35.70182 -77.47646 36735 ft 343 kts 233°
2026-05-08 23:07 35.68299 -77.49454 36985 ft 343 kts 233°
2026-05-08 23:07 35.66424 -77.51252 37274 ft 341 kts 233°
2026-05-08 23:07 35.64561 -77.53035 37577 ft 338 kts 233°
2026-05-08 23:08 35.62710 -77.54808 37842 ft 336 kts 233°
2026-05-08 23:08 35.60868 -77.56574 37999 ft 337 kts 233°
2026-05-08 23:08 35.57162 -77.60137 38045 ft 344 kts 233°
2026-05-08 23:09 35.53372 -77.63769 38045 ft 346 kts 233°
2026-05-08 23:09 35.49559 -77.67398 38045 ft 347 kts 233°
2026-05-08 23:10 35.45741 -77.71034 38053 ft 347 kts 233°
2026-05-08 23:10 35.41950 -77.74639 38057 ft 347 kts 233°
2026-05-08 23:11 35.38128 -77.78276 38061 ft 348 kts 233°
2026-05-08 23:11 35.34299 -77.81916 38063 ft 348 kts 232°
2026-05-08 23:12 35.30465 -77.85552 38064 ft 349 kts 232°
2026-05-08 23:12 35.26647 -77.89170 38065 ft 350 kts 232°
2026-05-08 23:13 35.22795 -77.92823 38071 ft 350 kts 232°
2026-05-08 23:13 35.18939 -77.96471 38073 ft 350 kts 232°
2026-05-08 23:14 35.15078 -78.00121 38082 ft 351 kts 232°
2026-05-08 23:14 35.11236 -78.03737 38080 ft 351 kts 232°
2026-05-08 23:15 35.07369 -78.07368 38079 ft 350 kts 232°
2026-05-08 23:15 35.03504 -78.11004 38076 ft 351 kts 232°
2026-05-08 23:16 34.99636 -78.14642 38076 ft 351 kts 232°
2026-05-08 23:16 34.95785 -78.18254 38080 ft 352 kts 232°
2026-05-08 23:17 34.91902 -78.21893 38079 ft 352 kts 231°
2026-05-08 23:17 34.88008 -78.25529 38082 ft 353 kts 231°
2026-05-08 23:18 34.84113 -78.29172 38082 ft 353 kts 231°
2026-05-08 23:18 34.80244 -78.32793 38083 ft 354 kts 231°
2026-05-08 23:19 34.76336 -78.36438 38082 ft 353 kts 231°
2026-05-08 23:19 34.72434 -78.40076 38086 ft 354 kts 231°
2026-05-08 23:20 34.68523 -78.43710 38084 ft 354 kts 231°
2026-05-08 23:20 34.64608 -78.47345 38082 ft 354 kts 231°
2026-05-08 23:21 34.60716 -78.50961 38089 ft 355 kts 231°
2026-05-08 23:21 34.56796 -78.54598 38087 ft 355 kts 231°
2026-05-08 23:22 34.52868 -78.58227 38085 ft 355 kts 231°
2026-05-08 23:22 34.48947 -78.61849 38089 ft 354 kts 231°
2026-05-08 23:23 34.45062 -78.65435 38086 ft 353 kts 231°
2026-05-08 23:23 34.41154 -78.69042 38088 ft 353 kts 231°
2026-05-08 23:24 34.37170 -78.72557 38093 ft 356 kts 229°
2026-05-08 23:24 34.33062 -78.75943 38096 ft 358 kts 228°
2026-05-08 23:25 34.28970 -78.79292 38097 ft 357 kts 228°
2026-05-08 23:25 34.24873 -78.82683 38098 ft 357 kts 229°
2026-05-08 23:26 34.20787 -78.86083 38095 ft 357 kts 229°
2026-05-08 23:26 34.16704 -78.89489 38094 ft 357 kts 229°
2026-05-08 23:27 34.12648 -78.92864 38093 ft 357 kts 229°
2026-05-08 23:27 34.08560 -78.96259 38092 ft 357 kts 229°
2026-05-08 23:28 34.04476 -78.99648 38093 ft 356 kts 228°
2026-05-08 23:28 34.00392 -79.03027 38088 ft 355 kts 228°
2026-05-08 23:29 33.96322 -79.06398 38083 ft 355 kts 228°
2026-05-08 23:29 33.92269 -79.09759 38087 ft 357 kts 227°
2026-05-08 23:30 33.88174 -79.13144 38086 ft 358 kts 227°
2026-05-08 23:30 33.84059 -79.16529 38087 ft 359 kts 227°
2026-05-08 23:31 33.79940 -79.19913 38093 ft 359 kts 227°
2026-05-08 23:31 33.75851 -79.23275 38096 ft 359 kts 227°
2026-05-08 23:32 33.71734 -79.26661 38093 ft 359 kts 227°
2026-05-08 23:32 33.67617 -79.30045 38093 ft 359 kts 227°
2026-05-08 23:33 33.63537 -79.33463 38093 ft 357 kts 228°
2026-05-08 23:33 33.59524 -79.36897 38095 ft 356 kts 229°
2026-05-08 23:34 33.55489 -79.40347 38094 ft 357 kts 228°
2026-05-08 23:34 33.51441 -79.43790 38092 ft 357 kts 228°
2026-05-08 23:35 33.47387 -79.47217 38096 ft 356 kts 228°
2026-05-08 23:35 33.43369 -79.50607 38097 ft 356 kts 228°
2026-05-08 23:36 33.39332 -79.54017 38093 ft 355 kts 228°
2026-05-08 23:36 33.35295 -79.57419 38090 ft 354 kts 228°
2026-05-08 23:37 33.31270 -79.60814 38093 ft 354 kts 228°
2026-05-08 23:37 33.27253 -79.64205 38082 ft 354 kts 228°
2026-05-08 23:38 33.23909 -79.67020 38079 ft 354 kts 228°
2026-05-08 23:38 33.19228 -79.70944 38076 ft 354 kts 228°
2026-05-08 23:39 33.15194 -79.74320 38077 ft 354 kts 227°
2026-05-08 23:39 33.11158 -79.77703 38077 ft 355 kts 228°
2026-05-08 23:40 33.07807 -79.80519 38076 ft 355 kts 227°
2026-05-08 23:40 33.03105 -79.84447 38076 ft 355 kts 227°
2026-05-08 23:41 32.99054 -79.87830 38082 ft 356 kts 227°
2026-05-08 23:41 32.95683 -79.90638 38075 ft 356 kts 227°
2026-05-08 23:42 32.91626 -79.94019 38080 ft 356 kts 227°
2026-05-08 23:42 32.87568 -79.97397 38078 ft 356 kts 227°
2026-05-08 23:43 32.83504 -80.00781 38072 ft 357 kts 227°
2026-05-08 23:43 32.79434 -80.04166 38073 ft 357 kts 227°
2026-05-08 23:44 32.75386 -80.07526 38073 ft 357 kts 227°
2026-05-08 23:44 32.71301 -80.10909 38071 ft 358 kts 227°
2026-05-08 23:45 32.67202 -80.14296 38072 ft 359 kts 227°
2026-05-08 23:45 32.63095 -80.17691 38072 ft 360 kts 227°
2026-05-08 23:46 32.59010 -80.21068 38069 ft 361 kts 227°
2026-05-08 23:46 32.54887 -80.24464 38069 ft 361 kts 226°
2026-05-08 23:47 32.50655 -80.27731 38070 ft 371 kts 221°
2026-05-08 23:47 32.46101 -80.30615 38067 ft 371 kts 221°
2026-05-08 23:48 32.41537 -80.33491 38066 ft 371 kts 221°
2026-05-08 23:48 32.37011 -80.36344 38064 ft 371 kts 221°
2026-05-08 23:49 32.32456 -80.39223 38065 ft 372 kts 221°
2026-05-08 23:49 32.27890 -80.42111 38063 ft 372 kts 220°
2026-05-08 23:50 32.23312 -80.44992 38063 ft 373 kts 220°
2026-05-08 23:50 32.18730 -80.47874 38064 ft 373 kts 220°
2026-05-08 23:51 32.14180 -80.50735 38064 ft 373 kts 220°
2026-05-08 23:51 32.09592 -80.53619 38064 ft 374 kts 220°
2026-05-08 23:52 32.04996 -80.56495 38060 ft 374 kts 220°
2026-05-08 23:52 32.00393 -80.59377 38059 ft 375 kts 220°
2026-05-08 23:53 31.95815 -80.62235 38057 ft 375 kts 220°
2026-05-08 23:53 31.91200 -80.65132 38055 ft 377 kts 220°
2026-05-08 23:54 31.86557 -80.68031 38056 ft 378 kts 220°
2026-05-08 23:55 31.79573 -80.72382 38056 ft 379 kts 220°
2026-05-08 23:55 31.74939 -80.75273 38050 ft 380 kts 220°
2026-05-08 23:56 31.70265 -80.78179 38047 ft 381 kts 219°
2026-05-08 23:56 31.65582 -80.81087 38045 ft 381 kts 219°
2026-05-08 23:57 31.60890 -80.83996 38044 ft 382 kts 219°
2026-05-08 23:57 31.56188 -80.86906 38041 ft 382 kts 219°
2026-05-08 23:58 31.51520 -80.89804 38040 ft 383 kts 219°
2026-05-08 23:58 31.46809 -80.92720 38036 ft 383 kts 219°
2026-05-08 23:59 31.42097 -80.95632 38033 ft 383 kts 219°
2026-05-08 23:59 31.37375 -80.98547 38031 ft 384 kts 219°
2026-05-09 00:00 31.32674 -81.01439 38030 ft 385 kts 219°
2026-05-09 00:00 31.27932 -81.04350 38032 ft 387 kts 217°
2026-05-09 00:00 31.25387 -81.05523 38028 ft 401 kts 207°
2026-05-09 00:01 31.22586 -81.06147 38029 ft 419 kts 197°
2026-05-09 00:01 31.16666 -81.06303 38024 ft 427 kts 193°
2026-05-09 00:02 31.10726 -81.06416 38025 ft 427 kts 193°
2026-05-09 00:02 31.08408 -81.06466 38026 ft 427 kts 193°
2026-05-09 00:03 31.02725 -81.06587 38022 ft 428 kts 193°
2026-05-09 00:03 30.96756 -81.06711 38029 ft 429 kts 193°
2026-05-09 00:04 30.90787 -81.06832 38031 ft 429 kts 193°
2026-05-09 00:04 30.84853 -81.06956 38035 ft 430 kts 193°
2026-05-09 00:05 30.78873 -81.07085 38035 ft 430 kts 193°
2026-05-09 00:05 30.72876 -81.07215 38038 ft 432 kts 193°
2026-05-09 00:06 30.66866 -81.07337 38040 ft 432 kts 193°
2026-05-09 00:06 30.60850 -81.07466 38044 ft 431 kts 194°
2026-05-09 00:07 30.54913 -81.07789 38048 ft 429 kts 195°
2026-05-09 00:07 30.48955 -81.08214 38048 ft 429 kts 195°
2026-05-09 00:08 30.42986 -81.08611 38045 ft 430 kts 195°
2026-05-09 00:08 30.36997 -81.08974 38042 ft 431 kts 194°
2026-05-09 00:09 30.31044 -81.09315 38043 ft 431 kts 194°
2026-05-09 00:09 30.25054 -81.09672 38044 ft 431 kts 194°
2026-05-09 00:10 30.19058 -81.10030 38047 ft 431 kts 194°
2026-05-09 00:10 30.13068 -81.10393 38047 ft 431 kts 194°
2026-05-09 00:11 30.07113 -81.10747 38047 ft 432 kts 194°
2026-05-09 00:11 30.01109 -81.11105 38050 ft 432 kts 194°
2026-05-09 00:12 29.95102 -81.11459 38049 ft 432 kts 193°
2026-05-09 00:12 29.89089 -81.11819 38042 ft 433 kts 193°
2026-05-09 00:13 29.83018 -81.11885 38041 ft 447 kts 183°
2026-05-09 00:13 29.79925 -81.11178 38038 ft 460 kts 173°
2026-05-09 00:13 29.76930 -81.09885 38035 ft 471 kts 166°
2026-05-09 00:14 29.70907 -81.06903 38028 ft 472 kts 166°
2026-05-09 00:14 29.64872 -81.03928 38023 ft 471 kts 166°
2026-05-09 00:15 29.58843 -81.00979 38014 ft 471 kts 166°
2026-05-09 00:15 29.52803 -80.98029 38007 ft 471 kts 166°
2026-05-09 00:16 29.46767 -80.95089 38000 ft 472 kts 166°
2026-05-09 00:16 29.40760 -80.92166 37994 ft 472 kts 166°
2026-05-09 00:17 29.34712 -80.89219 37993 ft 473 kts 166°
2026-05-09 00:17 29.28657 -80.86273 37993 ft 473 kts 166°
2026-05-09 00:18 29.22603 -80.83336 37999 ft 473 kts 166°
2026-05-09 00:18 29.16545 -80.80406 38005 ft 473 kts 166°
2026-05-09 00:19 29.10523 -80.77492 38013 ft 473 kts 166°
2026-05-09 00:19 29.04451 -80.74552 38010 ft 474 kts 166°
2026-05-09 00:20 28.98368 -80.71603 38008 ft 476 kts 166°
2026-05-09 00:20 28.92256 -80.68729 38005 ft 475 kts 167°
2026-05-09 00:21 28.86138 -80.66023 38004 ft 475 kts 167°
2026-05-09 00:21 28.79969 -80.63323 38002 ft 475 kts 167°
2026-05-09 00:22 28.73796 -80.60583 37998 ft 477 kts 167°
2026-05-09 00:22 28.67622 -80.57817 37998 ft 477 kts 167°
2026-05-09 00:23 28.61482 -80.55073 37998 ft 477 kts 167°
2026-05-09 00:23 28.55300 -80.52316 37992 ft 477 kts 166°
2026-05-09 00:24 28.49111 -80.49563 37985 ft 477 kts 167°
2026-05-09 00:24 28.42922 -80.46819 37982 ft 477 kts 167°
2026-05-09 00:25 28.36771 -80.44108 37978 ft 478 kts 166°
2026-05-09 00:25 28.30581 -80.41365 37972 ft 478 kts 166°
2026-05-09 00:26 28.24386 -80.38626 37972 ft 478 kts 166°
2026-05-09 00:26 28.18192 -80.35902 37978 ft 478 kts 166°
2026-05-09 00:27 28.11996 -80.33166 37981 ft 478 kts 166°
2026-05-09 00:27 28.05831 -80.30512 37981 ft 476 kts 168°
2026-05-09 00:28 27.99565 -80.28082 37983 ft 475 kts 169°
2026-05-09 00:28 27.93288 -80.25724 37991 ft 476 kts 169°
2026-05-09 00:29 27.87016 -80.23313 38000 ft 476 kts 168°
2026-05-09 00:29 27.80788 -80.20868 38011 ft 477 kts 168°
2026-05-09 00:30 27.74546 -80.18400 38037 ft 474 kts 168°
2026-05-09 00:30 27.68327 -80.15986 36948 ft 475 kts 168°
2026-05-09 00:30 27.65169 -80.14777 35547 ft 483 kts 168°
2026-05-09 00:31 27.61965 -80.13550 34154 ft 490 kts 168°
2026-05-09 00:31 27.58771 -80.12290 32693 ft 496 kts 167°
2026-05-09 00:31 27.55514 -80.10957 31322 ft 499 kts 166°
2026-05-09 00:31 27.52304 -80.09604 30513 ft 487 kts 166°
2026-05-09 00:32 27.49156 -80.08268 29517 ft 479 kts 166°
2026-05-09 00:32 27.46061 -80.06960 28545 ft 471 kts 166°
2026-05-09 00:32 27.43015 -80.05691 27535 ft 464 kts 166°
2026-05-09 00:32 27.39976 -80.04447 26406 ft 468 kts 166°
2026-05-09 00:33 27.36881 -80.03251 25414 ft 471 kts 168°
2026-05-09 00:33 27.33790 -80.02212 25193 ft 455 kts 170°
2026-05-09 00:33 27.30836 -80.01314 25042 ft 439 kts 172°
2026-05-09 00:33 27.27913 -80.00475 24782 ft 428 kts 172°
2026-05-09 00:34 27.25043 -79.99657 24529 ft 424 kts 171°
2026-05-09 00:34 27.22205 -79.98765 24279 ft 424 kts 169°
2026-05-09 00:34 27.19391 -79.97792 23924 ft 423 kts 168°
2026-05-09 00:34 27.16597 -79.96769 23381 ft 422 kts 167°
2026-05-09 00:35 27.13818 -79.95726 22857 ft 420 kts 167°
2026-05-09 00:35 27.11058 -79.94687 22355 ft 418 kts 167°
2026-05-09 00:35 27.08352 -79.93682 21955 ft 412 kts 167°
2026-05-09 00:35 27.05643 -79.92678 21491 ft 409 kts 166°
2026-05-09 00:36 27.02960 -79.91635 20998 ft 406 kts 165°
2026-05-09 00:36 27.00311 -79.90564 20515 ft 403 kts 165°
2026-05-09 00:36 26.97689 -79.89482 20041 ft 400 kts 164°
2026-05-09 00:36 26.95093 -79.88409 19559 ft 396 kts 164°
2026-05-09 00:37 26.92517 -79.87350 19069 ft 392 kts 164°
2026-05-09 00:37 26.89974 -79.86313 18738 ft 384 kts 164°
2026-05-09 00:37 26.87523 -79.85318 18425 ft 376 kts 164°
2026-05-09 00:37 26.85077 -79.84332 17948 ft 369 kts 164°
2026-05-09 00:38 26.82676 -79.83370 17144 ft 364 kts 164°
2026-05-09 00:38 26.80307 -79.82423 16352 ft 359 kts 163°
2026-05-09 00:38 26.77987 -79.81493 15814 ft 349 kts 163°
2026-05-09 00:38 26.75697 -79.80574 15394 ft 350 kts 163°
2026-05-09 00:39 26.73409 -79.79665 14941 ft 348 kts 165°
2026-05-09 00:39 26.71068 -79.79120 14485 ft 341 kts 178°
2026-05-09 00:39 26.68749 -79.79156 14054 ft 336 kts 189°
2026-05-09 00:39 26.66489 -79.79740 13623 ft 331 kts 201°
2026-05-09 00:40 26.64347 -79.80619 13363 ft 324 kts 201°
2026-05-09 00:40 26.62254 -79.81470 13073 ft 318 kts 201°
2026-05-09 00:40 26.60177 -79.82310 12687 ft 317 kts 201°
2026-05-09 00:41 26.56062 -79.83981 11926 ft 313 kts 200°
2026-05-09 00:41 26.54040 -79.84836 11661 ft 307 kts 202°
2026-05-09 00:41 26.52087 -79.85733 11412 ft 301 kts 203°
2026-05-09 00:41 26.50166 -79.86650 11071 ft 299 kts 203°
2026-05-09 00:42 26.48283 -79.87555 10709 ft 298 kts 203°
2026-05-09 00:42 26.46380 -79.88466 10344 ft 297 kts 203°
2026-05-09 00:42 26.44480 -79.89368 9978 ft 297 kts 203°
2026-05-09 00:42 26.42589 -79.90262 9495 ft 293 kts 203°
2026-05-09 00:43 26.40710 -79.91146 8838 ft 292 kts 202°
2026-05-09 00:43 26.38844 -79.92023 8237 ft 291 kts 203°
2026-05-09 00:43 26.37077 -79.93079 8035 ft 286 kts 210°
2026-05-09 00:43 26.35359 -79.94194 8013 ft 286 kts 210°
2026-05-09 00:44 26.33633 -79.95302 8018 ft 286 kts 210°
2026-05-09 00:44 26.31929 -79.96390 8019 ft 286 kts 209°
2026-05-09 00:44 26.30203 -79.97493 8019 ft 286 kts 209°
2026-05-09 00:44 26.28474 -79.98600 8015 ft 286 kts 210°
2026-05-09 00:45 26.26748 -79.99709 8010 ft 286 kts 210°
2026-05-09 00:45 26.25022 -80.00819 8009 ft 286 kts 210°
2026-05-09 00:45 26.23295 -80.01930 8009 ft 286 kts 210°
2026-05-09 00:45 26.21569 -80.03037 8008 ft 286 kts 210°
2026-05-09 00:46 26.19852 -80.04161 8008 ft 286 kts 214°
2026-05-09 00:46 26.18379 -80.05646 7969 ft 286 kts 230°
2026-05-09 00:46 26.17359 -80.07529 7634 ft 285 kts 248°
2026-05-09 00:46 26.16728 -80.09586 7291 ft 284 kts 251°
2026-05-09 00:47 26.16107 -80.11671 6967 ft 283 kts 251°
2026-05-09 00:47 26.15487 -80.13747 6646 ft 282 kts 251°
2026-05-09 00:47 26.15054 -80.15866 6312 ft 282 kts 264°
2026-05-09 00:47 26.15028 -80.18037 6052 ft 279 kts 270°
2026-05-09 00:48 26.15043 -80.20201 6003 ft 281 kts 269°
2026-05-09 00:48 26.15054 -80.22376 6008 ft 281 kts 269°
2026-05-09 00:48 26.15066 -80.24545 5766 ft 279 kts 269°
2026-05-09 00:48 26.15078 -80.26677 5444 ft 279 kts 269°
2026-05-09 00:49 26.15089 -80.28828 5123 ft 277 kts 269°
2026-05-09 00:49 26.15100 -80.30966 4890 ft 273 kts 270°
2026-05-09 00:49 26.15113 -80.33054 4765 ft 266 kts 270°
2026-05-09 00:49 26.15127 -80.35077 4633 ft 258 kts 269°
2026-05-09 00:50 26.15144 -80.37039 4507 ft 249 kts 270°
2026-05-09 00:50 26.14959 -80.38900 4369 ft 237 kts 247°
2026-05-09 00:50 26.14038 -80.40333 4191 ft 226 kts 215°
2026-05-09 00:50 26.12627 -80.40997 4032 ft 221 kts 186°
2026-05-09 00:51 26.11133 -80.40873 3810 ft 219 kts 159°
2026-05-09 00:51 26.09868 -80.39975 3504 ft 218 kts 131°
2026-05-09 00:51 26.09140 -80.38528 3235 ft 214 kts 103°
2026-05-09 00:51 26.08934 -80.36922 3106 ft 206 kts 97°
2026-05-09 00:52 26.08761 -80.35365 2956 ft 199 kts 97°
2026-05-09 00:52 26.08591 -80.33869 2829 ft 191 kts 97°
2026-05-09 00:52 26.08427 -80.32439 2734 ft 181 kts 98°
2026-05-09 00:52 26.08270 -80.31080 2511 ft 175 kts 97°
2026-05-09 00:53 26.08115 -80.29747 2265 ft 171 kts 98°
2026-05-09 00:53 26.07968 -80.28488 2135 ft 162 kts 97°
2026-05-09 00:53 26.07843 -80.27277 1955 ft 155 kts 94°
2026-05-09 00:53 26.07783 -80.26105 1727 ft 150 kts 92°
2026-05-09 00:54 26.07756 -80.24960 1528 ft 144 kts 90°
2026-05-09 00:54 26.07741 -80.23863 1338 ft 140 kts 90°
2026-05-09 00:54 26.07730 -80.22787 1150 ft 138 kts 91°
2026-05-09 00:54 26.07722 -80.21721 959 ft 138 kts 90°
2026-05-09 00:55 26.07720 -80.20658 783 ft 138 kts 90°
2026-05-09 00:55 26.07719 -80.19603 668 ft 137 kts 89°
2026-05-09 00:55 26.07718 -80.18555 429 ft 138 kts 91°
2026-05-09 00:55 26.07709 -80.17491 232 ft 137 kts 90°
2026-05-09 00:56 26.07694 -80.16428 30 ft 137 kts 91°
2026-05-09 00:56 26.07683 -80.15484 15 ft 104 kts 89°
2026-05-09 00:56 26.07683 -80.14849 19 ft 56 kts 91°
2026-05-09 00:56 26.07640 -80.14653 19 ft 23 kts 97°
2026-05-09 00:57 26.07579 -80.14590 18 ft 14 kts 208°
2026-05-09 00:57 26.07561 -80.14707 17 ft 18 kts 269°
2026-05-09 00:57 26.07551 -80.14852 16 ft 11 kts 229°
2026-05-09 00:57 26.07494 -80.14819 16 ft 13 kts 117°
2026-05-09 00:58 26.07453 -80.14736 16 ft 12 kts 182°
2026-05-09 00:58 26.07416 -80.14811 18 ft 20 kts 250°
2026-05-09 00:58 26.07279 -80.14851 16 ft 24 kts 179°
2026-05-09 00:58 26.07106 -80.14853 17 ft 26 kts 181°
2026-05-09 00:59 26.07023 -80.14788 16 ft 14 kts 136°
2026-05-09 00:59 26.06945 -80.14712 16 ft 16 kts 140°
2026-05-09 00:59 26.06854 -80.14628 17 ft 18 kts 138°
2026-05-09 00:59 26.06819 -80.14504 16 ft 15 kts 89°
2026-05-09 01:00 26.06818 -80.14408 16 ft 11 kts 91°
2026-05-09 01:00 26.06820 -80.14347 16 ft 2 kts 62°
2026-05-09 01:00 26.06839 -80.14342 16 ft 4 kts
2026-05-09 01:00 26.06875 -80.14341 18 ft 3 kts 359°
2026-05-09 01:01 26.06880 -80.14341 16 ft 0 kts 359°